GW2385 Weather Reports


time (UTC)temp
C
wind
direction
speed
KPH
gust
KPH
rain 1hr
cm
rain 24hr
cm
rain mn
cm
humidity
%
barometer
mb
20260503210543 27 188 1.6 1.6 0.00 0.00 0.00 43 1009.7
20260503210038 27 155 1.6 1.6 0.00 0.00 0.00 46 1009.8
20260503205535 26 177 1.6 1.6 0.00 0.00 0.00 47 1009.9
20260503205032 27 77 1.6 1.6 0.00 0.00 0.00 45 1010.3
20260503204529 26 130 1.6 1.6 0.00 0.00 0.00 47 1009.9
20260503204026 26 183 0.0 0.0 0.00 0.00 0.00 46 1010.2
20260503203523 26 198 1.6 1.6 0.00 0.00 0.00 47 1010.2
20260503203020 26 289 1.6 1.6 0.00 0.00 0.00 47 1010.4
20260503202518 25 69 1.6 3.2 0.00 0.00 0.00 47 1010.5
20260503202015 25 41 3.2 3.2 0.00 0.00 0.00 47 1010.5
20260503201514 25 59 1.6 3.2 0.00 0.00 0.00 47 1010.3
20260503201010 26 41 3.2 4.8 0.00 0.00 0.00 46 1010.4
20260503200506 26 100 1.6 3.2 0.00 0.00 0.00 46 1010.5
20260503200003 25 52 1.6 3.2 0.00 0.00 0.00 47 1010.6
20260503195500 25 87 1.6 1.6 0.00 0.00 0.00 48 1010.6
20260503194957 25 28 6.4 8.0 0.00 0.00 0.00 49 1010.7
20260503194455 26 160 3.2 4.8 0.00 0.00 0.00 49 1010.9
20260503193949 25 20 3.2 3.2 0.00 0.00 0.00 47 1010.7
20260503193445 25 198 1.6 1.6 0.00 0.00 0.00 50 1010.9
20260503192941 25 155 1.6 3.2 0.00 0.00 0.00 48 1010.9
20260503192438 25 4 1.6 3.2 0.00 0.00 0.00 49 1011.1
20260503191933 25 161 1.6 1.6 0.00 0.00 0.00 50 1011.0
20260503191431 25 120 0.0 1.6 0.00 0.00 0.00 51 1011.2
20260503190927 25 175 4.8 8.0 0.00 0.00 0.00 49 1011.3
20260503190425 25 142 0.0 0.0 0.00 0.00 0.00 51 1011.0
20260503185921 23 239 1.6 3.2 0.00 0.00 0.00 53 1011.4
20260503185418 23 151 1.6 1.6 0.00 0.00 0.00 54 1011.2
20260503184917 24 25 3.2 3.2 0.00 0.00 0.00 51 1011.5
20260503184414 25 5 3.2 3.2 0.00 0.00 0.00 51 1011.4
20260503183910 23 30 1.6 3.2 0.00 0.00 0.00 52 1011.4
20260503183407 23 139 0.0 0.0 0.00 0.00 0.00 53 1011.6
20260503182904 23 130 0.0 0.0 0.00 0.00 0.00 56 1011.5
20260503182403 22 126 1.6 1.6 0.00 0.00 0.00 56 1011.7
20260503181900 22 234 3.2 3.2 0.00 0.00 0.00 57 1011.8
20260503181356 22 196 0.0 1.6 0.00 0.00 0.00 57 1011.8
20260503180853 23 157 0.0 1.6 0.00 0.00 0.00 55 1011.9
20260503180351 22 154 1.6 1.6 0.00 0.00 0.00 57 1011.9
20260503175847 22 149 0.0 1.6 0.00 0.00 0.00 55 1011.9
20260503175345 22 154 0.0 0.0 0.00 0.00 0.00 56 1011.9
20260503174841 22 196 0.0 1.6 0.00 0.00 0.00 56 1011.9
20260503174339 21 183 1.6 3.2 0.00 0.00 0.00 61 1011.7
20260503173834 21 161 0.0 1.6 0.00 0.00 0.00 62 1011.8
20260503173331 21 93 1.6 1.6 0.00 0.00 0.00 63 1011.9
20260503172827 21 125 0.0 0.0 0.00 0.00 0.00 62 1012.1
20260503172325 21 225 1.6 3.2 0.00 0.00 0.00 62 1012.0
20260503171821 20 149 1.6 1.6 0.00 0.00 0.00 62 1011.9
20260503171318 20 150 0.0 1.6 0.00 0.00 0.00 65 1012.2
20260503170815 20 30 4.8 8.0 0.00 0.00 0.00 64 1012.0
20260503170312 20 110 0.0 1.6 0.00 0.00 0.00 66 1012.1
20260503150704 13 155 0.0 0.0 0.00 0.00 0.00 91 1012.3
20260503150200 13 153 0.0 0.0 0.00 0.00 0.00 92 1012.4
20260503140124 10 183 1.6 1.6 0.00 0.00 0.00 96 1012.3
20260503131054 10 168 0.0 0.0 0.00 0.00 0.00 96 1012.2
20260503130551 10 157 0.0 0.0 0.00 0.00 0.00 96 1012.3
20260503110442 11 152 1.6 1.6 0.00 0.00 0.00 94 1012.5
20260503090333 12 166 1.6 1.6 0.00 0.00 0.00 89 1012.5
20260503081300 12 174 0.0 1.6 0.00 0.00 0.00 87 1012.6
20260503080756 12 174 1.6 1.6 0.00 0.00 0.00 88 1012.7
20260503080254 12 171 3.2 3.2 0.00 0.00 0.00 88 1012.5
20260503072730 13 176 3.2 3.2 0.00 0.00 0.00 85 1012.6
20260503072227 13 181 3.2 3.2 0.00 0.00 0.00 85 1012.6
20260503071723 13 159 1.6 1.6 0.00 0.00 0.00 85 1012.5
20260503071220 13 179 4.8 4.8 0.00 0.00 0.00 85 1012.4
20260503070717 13 165 1.6 3.2 0.00 0.00 0.00 84 1012.6
20260503070215 13 183 3.2 3.2 0.00 0.00 0.00 83 1012.5
20260503060139 15 172 3.2 3.2 0.00 0.00 0.00 79 1012.4
20260503054626 14 185 3.2 3.2 0.00 0.00 0.00 79 1012.3
20260503054123 15 178 4.8 4.8 0.00 0.00 0.00 77 1012.3
20260503053622 15 168 3.2 3.2 0.00 0.00 0.00 77 1012.5
20260503053120 14 167 4.8 4.8 0.00 0.00 0.00 78 1012.5
20260503052616 14 166 3.2 3.2 0.00 0.00 0.00 79 1012.4
20260503052112 15 173 3.2 3.2 0.00 0.00 0.00 78 1012.3
20260503051608 15 171 3.2 3.2 0.00 0.00 0.00 78 1012.2
20260503051106 15 151 1.6 1.6 0.00 0.00 0.00 77 1012.4
20260503050602 15 177 4.8 4.8 0.00 0.00 0.00 77 1012.3
20260503050059 15 164 3.2 3.2 0.00 0.00 0.00 78 1012.3
20260503045556 15 154 3.2 3.2 0.00 0.00 0.00 77 1012.3
20260503045053 15 142 3.2 3.2 0.00 0.00 0.00 74 1012.2
20260503044550 15 191 1.6 3.2 0.00 0.00 0.00 78 1012.3
20260503044047 15 177 1.6 1.6 0.00 0.00 0.00 77 1012.0
20260503043543 15 165 1.6 1.6 0.00 0.00 0.00 78 1012.1
20260503043040 15 175 0.0 1.6 0.00 0.00 0.00 78 1012.1
20260503042537 15 163 1.6 1.6 0.00 0.00 0.00 78 1012.0
20260503042033 15 166 3.2 3.2 0.00 0.00 0.00 78 1011.9
20260503041530 15 152 1.6 3.2 0.00 0.00 0.00 77 1011.9
20260503041028 15 148 1.6 1.6 0.00 0.00 0.00 75 1011.8
20260503040525 15 175 3.2 3.2 0.00 0.00 0.00 77 1011.8
20260503040022 15 163 1.6 3.2 0.00 0.00 0.00 76 1011.5
20260503035519 16 161 1.6 3.2 0.00 0.00 0.00 76 1011.8
20260503035017 16 141 1.6 3.2 0.00 0.00 0.00 75 1011.7
20260503034514 16 166 3.2 3.2 0.00 0.00 0.00 75 1011.5
20260503034011 16 156 1.6 1.6 0.00 0.00 0.00 74 1011.2
20260503033508 16 159 1.6 3.2 0.00 0.00 0.00 73 1011.3
20260503033006 17 159 1.6 1.6 0.00 0.00 0.00 73 1011.4
20260503032504 17 164 1.6 1.6 0.00 0.00 0.00 71 1011.3
20260503032002 17 160 0.0 1.6 0.00 0.00 0.00 70 1011.4
20260503031459 18 175 1.6 1.6 0.00 0.00 0.00 68 1010.9
20260503030956 18 156 0.0 1.6 0.00 0.00 0.00 67 1010.9
20260503030452 19 138 0.0 1.6 0.00 0.00 0.00 63 1011.0
20260503025949 19 138 0.0 0.0 0.00 0.00 0.00 60 1011.1
20260503025446 18 207 0.0 1.6 0.00 0.00 0.00 65 1010.8
20260503024943 19 158 0.0 0.0 0.00 0.00 0.00 65 1010.8
20260503024440 19 180 1.6 1.6 0.00 0.00 0.00 65 1010.8
20260503023937 20 147 1.6 1.6 0.00 0.00 0.00 64 1010.8
20260503023434 21 163 0.0 0.0 0.00 0.00 0.00 60 1010.8
20260503022931 21 174 0.0 0.0 0.00 0.00 0.00 58 1010.7
20260503022426 21 174 0.0 0.0 0.00 0.00 0.00 57 1010.8
20260503021922 21 166 0.0 0.0 0.00 0.00 0.00 54 1010.6
20260503021418 22 186 0.0 1.6 0.00 0.00 0.00 55 1010.7
20260503020916 22 162 0.0 1.6 0.00 0.00 0.00 51 1010.7
20260503020414 23 136 0.0 0.0 0.00 0.00 0.00 54 1010.6
20260503015909 23 15 0.0 1.6 0.00 0.00 0.00 48 1010.7
20260503015407 23 187 1.6 1.6 0.00 0.00 0.00 50 1010.8
20260503014902 23 84 1.6 1.6 0.00 0.00 0.00 48 1010.6
20260503014400 23 171 0.0 1.6 0.00 0.00 0.00 49 1010.8
20260503013858 23 20 1.6 1.6 0.00 0.00 0.00 48 1010.7
20260503013354 24 42 0.0 0.0 0.00 0.00 0.00 47 1010.6
20260503012851 23 174 0.0 0.0 0.00 0.00 0.00 47 1010.7
20260503012349 24 121 0.0 1.6 0.00 0.00 0.00 47 1010.9
20260503011846 23 122 1.6 1.6 0.00 0.00 0.00 48 1010.7
20260503011343 23 212 1.6 1.6 0.00 0.00 0.00 49 1010.7
20260503010839 23 55 3.2 3.2 0.00 0.00 0.00 48 1010.6
20260503010336 24 28 4.8 9.7 0.00 0.00 0.00 47 1010.8
20260503005833 24 6 1.6 3.2 0.00 0.00 0.00 47 1010.9
20260503005331 24 219 1.6 3.2 0.00 0.00 0.00 47 1010.9
20260503004827 24 40 1.6 1.6 0.00 0.00 0.00 47 1010.8
20260503004325 24 58 0.0 1.6 0.00 0.00 0.00 46 1011.0
20260503003822 24 36 1.6 3.2 0.00 0.00 0.00 47 1011.1
20260503003319 24 100 1.6 1.6 0.00 0.00 0.00 46 1011.1
20260503002816 24 180 1.6 1.6 0.00 0.00 0.00 46 1011.1
20260503002313 24 230 1.6 1.6 0.00 0.00 0.00 45 1011.1
20260503001809 24 0 4.8 4.8 0.00 0.00 0.00 45 1011.0
20260503001305 24 91 3.2 3.2 0.00 0.00 0.00 45 1011.1
20260503000803 24 145 1.6 1.6 0.00 0.00 0.00 47 1011.2
20260503000300 24 67 1.6 1.6 0.00 0.00 0.00 46 1011.2
20260502235757 25 175 0.0 1.6 0.00 0.00 0.00 47 1011.1
20260502235255 24 171 0.0 1.6 0.00 0.00 0.00 47 1011.4
20260502234751 24 335 1.6 1.6 0.00 0.00 0.00 47 1011.1
20260502234248 24 48 1.6 3.2 0.00 0.00 0.00 49 1011.2
20260502233744 23 34 4.8 8.0 0.00 0.00 0.00 49 1011.3
20260502233241 24 8 4.8 4.8 0.00 0.00 0.00 50 1011.3
20260502232737 23 46 1.6 3.2 0.00 0.00 0.00 50 1011.7
20260502232234 23 56 3.2 3.2 0.00 0.00 0.00 49 1011.6
20260502231731 24 196 1.6 3.2 0.00 0.00 0.00 49 1011.9
20260502231228 24 137 1.6 1.6 0.00 0.00 0.00 51 1011.7
20260502230727 23 118 0.0 1.6 0.00 0.00 0.00 51 1012.0
20260502230225 24 62 4.8 4.8 0.00 0.00 0.00 50 1012.0
20260502225720 24 180 1.6 1.6 0.00 0.00 0.00 52 1012.1
20260502225218 24 197 1.6 1.6 0.00 0.00 0.00 51 1011.9
20260502224714 25 21 4.8 9.7 0.00 0.00 0.00 51 1011.9
20260502224211 24 188 0.0 1.6 0.00 0.00 0.00 53 1012.2
20260502223708 24 127 1.6 1.6 0.00 0.00 0.00 51 1012.3
20260502223207 25 49 1.6 3.2 0.00 0.00 0.00 51 1012.4
20260502222704 24 145 0.0 0.0 0.00 0.00 0.00 51 1012.4
20260502222200 23 4 0.0 1.6 0.00 0.00 0.00 52 1012.4
20260502221656 24 36 4.8 4.8 0.00 0.00 0.00 52 1012.5
20260502221153 23 16 1.6 3.2 0.00 0.00 0.00 52 1012.5
20260502220649 24 57 1.6 1.6 0.00 0.00 0.00 52 1012.5
20260502220145 24 212 1.6 1.6 0.00 0.00 0.00 52 1012.6
20260502215643 23 115 0.0 0.0 0.00 0.00 0.00 53 1012.7
20260502215139 23 14 4.8 4.8 0.00 0.00 0.00 54 1012.6
20260502214637 23 164 1.6 1.6 0.00 0.00 0.00 54 1012.6
20260502214134 23 63 1.6 1.6 0.00 0.00 0.00 55 1012.7
20260502213631 23 354 3.2 3.2 0.00 0.00 0.00 54 1012.9
20260502213128 22 208 1.6 1.6 0.00 0.00 0.00 57 1012.9
20260502212627 23 339 1.6 3.2 0.00 0.00 0.00 55 1012.9
20260502212125 22 103 1.6 1.6 0.00 0.00 0.00 55 1013.2
20260502211620 23 112 1.6 1.6 0.00 0.00 0.00 57 1013.1
20260502211112 22 198 3.2 4.8 0.00 0.00 0.00 57 1013.2